Regional Weather Roundup
Issued by NWS Sterling, VA

Home | Current Version | Previous Version | Text Only | Print | Product List | Glossary Off
Versions: 1 2 3 4 5 6 7 8 9 10 11 12 13 14 15 16 17 18 19 20 21 22 23 24 25 26 27 28 29 30 31 32 33 34 35 36 37 38 39 40 41 42 43 44 45 46 47 48 49 50

000
ASUS41 KLWX 281710
RWRLWX

REGIONAL WEATHER ROUNDUP
NATIONAL WEATHER SERVICE BALTIMORE MD/WASHINGTON DC
100 PM EDT MON JUL 28 2014

Note: "FAIR" indicates few or no clouds below 12,000 feet
with no significant weather and/or obstructions to visibility.
 TC=TEMPERATURE CELSIUS

 * =Non NWS site. Station does not report precipitation (e.g. rain,
    snow, etc.), thunder, or fog.

DCZ001-MDZ009-015-VAZ040>042-051-053>054-281800-
WASHINGTON METRO
  /KDAA//-FT BELVOIR

CITY           SKY/WX    TMP DP  RH WIND       PRES   REMARKS
WASHINGTON NAT MOSUNNY   86  57  37 W20G30    29.68S
DULLES         PTSUNNY   79  56  45 W17G24    29.70R
ANDREWS AFB    SUNNY     83  59  43 W18G26    29.67S
QUANTICO       MOSUNNY   84  58  40 NW16G23   29.70R
COLLEGE PARK*  MOSUNNY   82  59  44 W15G23    29.67S
LEESBURG*      MOSUNNY   81  61  50 NW18G24   29.70S
MANASSAS*      CLOUDY    79  57  47 NW10G22   29.71R
GAITHERSBURG*  PTSUNNY   77  61  57 W14G21    29.72S

$$

MDZ006>007-011-014-281800-
BALTIMORE METRO

CITY           SKY/WX    TMP DP  RH WIND       PRES   REMARKS
BWI AIRPORT    MOSUNNY   84  59  42 W18G31    29.65S
MD SCIENCE CTR   N/A     82  57  42 MISG      29.65S
MARTIN STATE   MOSUNNY   82  61  47 W22G31    29.66S
ANNAPOLIS      MOSUNNY   81  59  47 W12G24    29.65S
FORT MEADE*    MOSUNNY   81  61  50 W14G21    29.68S

$$

MDZ012-015-019>023-281800-
MARYLAND EASTERN SHORE

CITY           SKY/WX    TMP DP  RH WIND       PRES   REMARKS
OCEAN CITY     PTSUNNY   84  63  49 NW8       29.64R
SALISBURY      NOT AVBL
BAY BRIDGE AP*   N/A     82  59  44 W16       29.65S
CAMBRIDGE*     SUNNY     82  57  42 W12G18    29.66S
EASTON*        PTSUNNY   84  64  51 NW14G21   29.69S

$$

MDZ017>025-281800-
SOUTHERN MARYLAND

CITY           SKY/WX    TMP DP  RH WIND       PRES   REMARKS
PATUXENT RIVER PTSUNNY   83  61  47 NW13      29.67R
ST INIGOES     PTSUNNY   83  62  49 W12G22    29.68R
LEONARDTOWN*   CLOUDY    81  61  50 W9        29.70R

$$

MDZ003>005-281800-
NORTH CENTRAL MARYLAND

CITY           SKY/WX    TMP DP  RH WIND       PRES   REMARKS
FREDERICK*     SUNNY     81  61  50 W25G35    29.70S
HAGERSTOWN APT MOSUNNY   79  56  45 W17G31    29.67F
WESTMINSTER*   PTSUNNY   77  61  57 W16G28    29.68F

$$

MDZ501>502-281800-
WESTERN MARYLAND

CITY           SKY/WX    TMP DP  RH WIND       PRES   REMARKS
OAKLAND*       CLOUDY    57 N/A N/A W12G22    29.81S
CUMBERLAND*    MOSUNNY   77  54  44 W12G25    29.76F

$$

VAZ025>031-281800-
SHENANDOAH VALLEY

CITY           SKY/WX    TMP DP  RH WIND       PRES   REMARKS
WINCHESTER*    CLOUDY    73  55  53 W16G25    29.74R
STAUNTON*      PTSUNNY   79  52  39 NW16      29.80S

$$

WVZ021-048>050-054>055-281800-
EASTERN WEST VIRGINIA PANHANDLE

CITY           SKY/WX    TMP DP  RH WIND       PRES   REMARKS
MARTINSBURG    SUNNY     80  56  43 W18G24    29.71S
PETERSBURG*    PTSUNNY   73  51  46 W9G16     29.78R

$$

VAZ036>039-050-281800-
CENTRAL FOOTHILLS

CITY           SKY/WX    TMP DP  RH WIND       PRES   REMARKS
CHARLOTTESVILL MOSUNNY   80  56  43 W8        29.74S
ORANGE*        MOSUNNY   82  55  39 W8G23     29.74S

$$

VAZ055>057-281800-
NORTH AND CENTRAL PIEDMONT

CITY           SKY/WX    TMP DP  RH WIND       PRES   REMARKS
FREDERICKSBRG* SUNNY     86  58  38 W14G20    29.69S
STAFFORD*      SUNNY     83  56  38 W17G23    29.74S

$$

NCZ024-NYZ072-PAZ021-071-VAZ022-071-281800-
OTHER REGIONAL OBSERVATIONS

CITY           SKY/WX    TMP DP  RH WIND       PRES   REMARKS
NEW YORK CITY  PTSUNNY   78  63  59 W9        29.56F
PHILADELPHIA   MOSUNNY   81  61  50 W25G35    29.59F
PITTSBURGH     RAIN      67  62  84 W13G22    29.76R
ROANOKE        CLOUDY    76  54  46 W18G30    29.85R
RICHMOND       MOSUNNY   88  58  36 W9G24     29.72R
RALEIGH        MOSUNNY   84  62  47 NW9G21    29.81S

$$

ANZ530>537-281800-
MARINE OBSERVATIONS

STATION/POSITION TIME  TEMP    WIND        PRES
                       AIR SEA DIR/SP/G
                 (UTC) (F)     (DEG/KT/KT) (MB)
THOMAS PT LIGHT  1700   80 79  270/ 19/ 21 1004.5R
BALT KEY BRIDGE  1700   80     270/ 25/ 30 1004.0R
COVE POINT       1700   80     320/ 10/ 14 1004.6S
LEWISETTA        1700   82 80  330/ 11/ 15 1004.9R
SOLOMONS ISLAND  1700      80                N/A
PINEY POINT      1700          320/ 21/ 22   N/A

$$




USA.gov is the U.S. government's official web portal to all federal, state and local government web resources and services.